This is the latest recevied weather packets stored in our database for station/object IR9AK-10. If no packets are shown the sender has not sent any weather packets the latest 10 day(s).
| Time | Temp. | Humidity | Pressure | Rain* | Wind** | Luminosity | Snow |
|---|---|---|---|---|---|---|---|
| 1777538197 | 21.67° C | 65% | 1060.8 hPa | - | - | - | - |
| 1777537597 | 21.67° C | 67% | 1060.7 hPa | - | - | - | - |
| 1777536998 | 21.67° C | 65% | 1060.5 hPa | - | - | - | - |
| 1777536399 | 22.22° C | 61% | 1059.9 hPa | - | - | - | - |
| 1777535800 | 22.22° C | 60% | 1059.6 hPa | - | - | - | - |
| 1777535202 | 22.22° C | 56% | 1059.9 hPa | - | - | - | - |
| 1777534603 | 22.78° C | 53% | 1060.1 hPa | - | - | - | - |
| 1777534004 | 22.78° C | 53% | 1060.2 hPa | - | - | - | - |
| 1777533405 | 22.78° C | 52% | 1060.2 hPa | - | - | - | - |
| 1777532807 | 22.78° C | 54% | 1060.3 hPa | - | - | - | - |
| 1777532208 | 21.67° C | 55% | 1060.2 hPa | - | - | - | - |
| 1777531608 | 21.67° C | 57% | 1060.3 hPa | - | - | - | - |
| 1777531010 | 21.67° C | 55% | 1060.3 hPa | - | - | - | - |
| 1777530410 | 21.11° C | 55% | 1059.9 hPa | - | - | - | - |
| 1777529810 | 21.11° C | 56% | 1060 hPa | - | - | - | - |
| 1777529212 | 20.56° C | 55% | 1059.8 hPa | - | - | - | - |
| 1777528613 | 21.11° C | 54% | 1059.6 hPa | - | - | - | - |
| 1777528014 | 21.11° C | 53% | 1059.4 hPa | - | - | - | - |
| 1777527415 | 20.56° C | 54% | 1059.2 hPa | - | - | - | - |
| 1777526816 | 20.56° C | 52% | 1059.1 hPa | - | - | - | - |
| 1777526217 | 20° C | 53% | 1059 hPa | - | - | - | - |
| 1777525619 | 20° C | 53% | 1059 hPa | - | - | - | - |
| 1777525021 | 20° C | 54% | 1059 hPa | - | - | - | - |
| 1777524422 | 20° C | 52% | 1059.1 hPa | - | - | - | - |
| 1777523823 | 19.44° C | 53% | 1059.2 hPa | - | - | - | - |
* Rain since midnight (hover to see other rain measurements)
** Current wind speed in m/s (hover to see current wind gust speed)